Hourly Data Report for October 05, 2017

All times are specified in Local Standard Time (LST). Add 1 hour to adjust for Daylight Saving Time where and when it is observed.

HART ISLAND (AUT)
NOVA SCOTIA

45°21'00.000" N
60°59'00.000" W
8.20 m
8202318
71419
WRN

Download Data

Hourly Data (October 2017)
Hourly Data Report for October 5, 2017
Temp Definition
°C
Dew Point Temp Definition
°C
Rel Hum Definition
%
Wind Dir Definition
10's deg

Wind Spd Definition
km/h
Visibility Definition
km
Stn Press Definition
kPa
Hmdx Definition


Wind Chill Definition


Weather Definition


TIME
00:00 15.6 14.0 90 22 35   101.22     LegendNANA
01:00 15.1 13.2 89 22 43   101.14     LegendNANA
02:00 15.0 13.2 89 22 34   101.10     LegendNANA
03:00 15.1 13.2 88 22 30   101.09     LegendNANA
04:00 15.3 13.4 89 23 30   101.04     LegendNANA
05:00 15.8 13.8 88 23 36   101.04     LegendNANA
06:00 16.1 14.4 90 22 41   100.93     LegendNANA
07:00 16.3 14.5 89 22 41   100.86     LegendNANA
08:00 16.8 14.9 88 23 42   100.94     LegendNANA
09:00 17.8 15.3 85 24 26   100.98     LegendNANA
10:00 20.3 15.4 74 25 25   100.98 25   LegendNANA
11:00 20.2 14.9 72 27 31   100.99     LegendNANA
12:00 19.7 15.0 74 28 26   100.99     LegendNANA
13:00 18.9 15.5 81 32 21   100.98     LegendNANA
14:00 18.6 15.0 79 32 25   100.97     LegendNANA
15:00 17.8 13.9 78 32 17   101.00     LegendNANA
16:00 17.7 12.1 70 26 12   101.05     LegendNANA
17:00 16.5 12.7 78 32 16   101.07     LegendNANA
18:00 16.0 13.0 82 32 12   101.10     LegendNANA
19:00 15.3 12.8 85 32 10   101.12     LegendNANA
20:00 15.7 13.0 84 35 11   101.19     LegendNANA
21:00 14.5 11.8 84 2 11   101.24     LegendNANA
22:00 13.8 11.4 85 2 3   101.24     LegendNANA
23:00 12.0 10.7 92 25 5   101.27     LegendNANA

Notes on Data Quality.

Legend

  • E = Estimated
  • M = Missing
  • NA = Not Available
  • ‡ = Partner data that is not subject to review by the National Climate Archives
Date modified: